Location: Peterborough
(44.3091°N, 78.3197°W)
Time: 16:26:17
(UTC-04:00)

Explorer 7 - Pass Details

Date: 30 March 2023
Orbit: 477 x 653 km, 50.3° (Epoch: 04 June)

Event Time Altitude Azimuth Distance (km) Brightness Sun altitude
Rises 19:48:02 0° 292° (WNW) 2,857 12.5 -2.6°
Reaches altitude 10° 19:50:30 10° 300° (WNW) 1,921 11.0 -3.1°
Maximum altitude 19:54:40 42° 11° (NNE) 818 7.7 -3.8°
Drops below altitude 10° 19:58:36 10° 83° (E) 1,806 8.8 -4.5°
Enters shadow 19:59:37 - 88° (E) 2,187 9.2 -4.7°
Sets 20:00:51 0° 91° (E) 2,665 - -4.9°
